{"data":{"norad_id":65439,"intl_designator":"2025-194F","name":"STARLINK-35045","alt_names":[],"object_type":"PAYLOAD","status":"ACTIVE","operator":null,"country":"US","launch_date":"2025-09-03","launch_site_code":"AFWTR","launch_vehicle":null,"mission":null,"orbit_class":"UNKNOWN","rcs_meters":null,"size_class":null,"mass_kg":null,"dimensions":null,"purposes":["comms"],"wikipedia_slug":null,"has_3d_model":false,"image_url":null,"decayed_at":null,"tle_current":{"epoch":"2026-09-20T20:10:29.299296Z","epoch_age_seconds":85514,"freshness":"FRESH","line1":"1 65439U 25194F   26263.84061689  .00012786  00000+0  39781-3 0  9993","line2":"2 65439  97.2851 113.5336 0001488 116.7897 243.3498 15.33436837 59126","mean_motion":15.33436837,"eccentricity":0.0001488,"inclination_deg":97.2851,"raan_deg":113.5336,"arg_perigee_deg":116.7897,"mean_anomaly_deg":243.3498,"bstar":0.00039781,"rev_number":5912,"period_min":93.906704551144,"perigee_km":464.54911870678,"apogee_km":466.58580515465,"semimajor_km":6843.7044619307,"source":"CELESTRAK","updated_at":"2026-09-21T09:00:35.609368Z"}}}